Location: Demmingen
(48.6757°N, 10.4375°E)
Time: 20:39:45
(UTC+00:00)

BREEZE-M DEB (TANK) - Pass Details

Date: 23 May 2024
Orbit: 288 x 16911 km, 49.4° (Epoch: 23 June)

Event Time Altitude Azimuth Distance (km) Brightness Sun altitude
Exits shadow 00:07:41 47° 207° (SSW) 827 3.2 -19.7°
Maximum altitude 00:07:51 48° 199° (SSW) 845 3.3 -19.7°
Drops below altitude 10° 00:15:21 10° 127° (SE) 4,054 7.0 -19.4°
Sets 00:21:53 0° 124° (SE) 6,895 8.2 -19.1°
